DB5ZQ Weather Reports


time (UTC)temp
F
wind
direction
speed
knots
gust
knots
rain 1hr
in
rain 24hr
in
rain mn
in
humidity
%
barometer
mb
20260507093524 58 8 0.0 4.3 0.00 0.06 0.01 71 1010.2
20260507093023 57 99 0.0 2.6 0.00 0.06 0.01 71 1010.2
20260507092523 57 284 0.0 3.5 0.00 0.06 0.01 71 1010.1
20260507092023 57 127 0.9 5.2 0.00 0.06 0.01 71 1010.1
20260507091522 57 36 0.9 3.5 0.00 0.06 0.01 71 1010.0
20260507091022 57 75 1.7 4.3 0.00 0.06 0.01 71 1010.0
20260507090522 57 153 2.6 5.2 0.00 0.06 0.01 71 1010.0
20260507090022 57 175 2.6 3.5 0.00 0.06 0.01 71 1009.9
20260507085521 58 60 0.9 2.6 0.00 0.06 0.01 71 1009.9
20260507085021 57 220 0.0 5.2 0.00 0.06 0.01 70 1009.9
20260507084521 58 7 0.0 6.1 0.00 0.06 0.01 70 1009.8
20260507084020 57 331 1.7 2.6 0.00 0.06 0.01 70 1009.9
20260507083520 57 130 0.0 3.5 0.00 0.06 0.01 70 1009.8
20260507083020 57 84 0.0 2.6 0.00 0.06 0.01 71 1009.8
20260507082520 57 358 0.0 6.1 0.00 0.06 0.01 71 1009.8
20260507082019 57 87 0.0 5.2 0.00 0.06 0.01 71 1009.7
20260507081519 57 161 1.7 3.5 0.00 0.06 0.01 71 1009.8
20260507081019 57 337 1.7 6.1 0.00 0.06 0.01 71 1009.7
20260507080518 57 143 0.0 6.1 0.00 0.06 0.01 71 1009.6
20260507080018 57 116 0.9 6.1 0.00 0.06 0.01 71 1009.6
20260507075518 57 175 1.7 5.2 0.00 0.06 0.01 71 1009.5
20260507075018 56 189 0.9 7.0 0.00 0.06 0.01 71 1009.4
20260507074517 56 189 2.6 6.1 0.00 0.06 0.01 72 1009.3
20260507074017 56 85 0.0 4.3 0.00 0.06 0.01 72 1009.3
20260507073517 56 23 0.0 4.3 0.00 0.06 0.01 73 1009.3
20260507073017 56 167 2.6 3.5 0.00 0.06 0.01 73 1009.2
20260507072516 56 312 0.0 4.3 0.00 0.06 0.01 73 1009.1
20260507072016 56 87 0.0 4.3 0.00 0.06 0.01 73 1009.0
20260507071516 56 30 0.0 3.5 0.00 0.06 0.01 73 1009.0
20260507071015 56 70 0.0 4.3 0.00 0.06 0.01 73 1009.0
20260507070515 56 172 4.3 4.3 0.00 0.06 0.01 73 1009.1
20260507070015 56 106 0.9 3.5 0.00 0.06 0.01 72 1008.9
20260507065515 56 129 0.0 4.3 0.00 0.06 0.01 72 1008.9
20260507065014 56 133 2.6 2.6 0.00 0.06 0.01 72 1008.9
20260507064514 56 59 0.0 5.2 0.00 0.06 0.01 72 1008.9
20260507064014 56 84 0.0 0.9 0.00 0.06 0.01 73 1008.8
20260507063513 56 53 0.0 2.6 0.00 0.06 0.01 73 1008.8
20260507063013 56 153 0.0 0.0 0.00 0.06 0.01 73 1008.5
20260507062513 56 153 0.0 0.0 0.00 0.06 0.01 74 1008.5
20260507062013 56 153 0.0 2.6 0.00 0.06 0.01 74 1008.5
20260507061512 55 153 0.9 2.6 0.00 0.06 0.01 75 1008.5
20260507061012 55 137 0.0 1.7 0.00 0.06 0.01 75 1008.4
20260507060512 55 208 0.0 3.5 0.00 0.06 0.01 75 1008.3
20260507060011 55 56 0.0 0.0 0.00 0.06 0.01 75 1008.3
20260507055511 55 56 0.0 3.5 0.00 0.06 0.01 75 1008.2
20260507055011 55 135 1.7 5.2 0.00 0.06 0.01 75 1008.2
20260507054511 55 123 0.0 3.5 0.00 0.06 0.01 75 1008.2
20260507054010 55 32 0.0 0.0 0.00 0.06 0.01 75 1008.1
20260507053510 55 32 0.0 0.0 0.00 0.06 0.01 76 1008.1
20260507053010 55 32 0.0 0.0 0.00 0.06 0.01 75 1008.0
20260507052509 55 32 0.0 0.0 0.00 0.06 0.01 76 1007.9
20260507052009 55 32 0.0 0.0 0.00 0.06 0.01 75 1007.9
20260507051509 55 32 0.0 0.0 0.00 0.06 0.01 76 1007.9
20260507051009 55 32 0.0 0.0 0.00 0.06 0.01 76 1007.7
20260507050508 55 32 0.0 0.9 0.00 0.06 0.01 76 1007.6
20260507050008 55 118 0.0 0.0 0.00 0.06 0.01 76 1007.5
20260507045508 55 118 0.0 0.0 0.00 0.06 0.01 76 1007.4
20260507045007 55 118 0.0 0.0 0.00 0.06 0.01 76 1007.4
20260507044507 55 118 0.0 0.0 0.00 0.06 0.01 76 1007.3
20260507044007 55 118 0.0 0.0 0.00 0.06 0.01 76 1007.3
20260507043507 55 118 0.0 0.0 0.00 0.06 0.01 76 1007.2
20260507043006 55 118 0.0 0.0 0.00 0.06 0.01 76 1007.1
20260507042506 55 118 0.0 0.0 0.00 0.06 0.01 77 1007.1
20260507042006 55 118 0.0 0.0 0.00 0.06 0.01 77 1007.0
20260507041505 55 118 0.0 0.0 0.00 0.06 0.01 77 1006.9
20260507041005 56 118 0.0 0.0 0.00 0.06 0.01 77 1006.9
20260507040505 55 118 0.0 0.0 0.00 0.06 0.01 77 1006.9
20260507040005 56 118 0.0 0.0 0.00 0.06 0.01 77 1006.8
20260507035504 56 118 0.0 0.0 0.00 0.06 0.01 77 1006.8
20260507035004 56 118 0.0 0.0 0.00 0.06 0.01 78 1006.8
20260507034504 56 118 0.0 0.0 0.00 0.06 0.01 77 1006.8
20260507034004 55 118 0.0 0.0 0.00 0.06 0.01 77 1006.7
20260507033503 56 118 0.0 0.0 0.00 0.06 0.01 77 1006.7
20260507033003 56 118 0.0 0.0 0.00 0.06 0.01 78 1006.7
20260507032503 56 118 0.0 0.0 0.00 0.06 0.01 78 1006.7
20260507032002 56 118 0.0 0.0 0.00 0.06 0.01 78 1006.7
20260507031502 55 118 0.0 0.0 0.00 0.06 0.01 78 1006.6
20260507031002 55 118 0.0 0.0 0.00 0.06 0.01 78 1006.6
20260507030501 55 118 0.0 0.0 0.00 0.06 0.01 78 1006.5
20260507030001 55 118 0.0 0.0 0.00 0.06 0.01 78 1006.5
20260507025501 55 118 0.0 3.5 0.00 0.06 0.01 78 1006.5
20260507025001 55 165 1.7 4.3 0.00 0.06 0.01 78 1006.5
20260507024500 56 118 0.0 3.5 0.00 0.06 0.01 78 1006.5
20260507024000 56 144 0.0 1.7 0.00 0.06 0.01 78 1006.5
20260507023500 56 274 0.0 0.0 0.00 0.06 0.01 78 1006.5
20260507023000 56 274 0.0 0.0 0.00 0.06 0.01 78 1006.4
20260507022459 56 274 0.0 0.0 0.01 0.06 0.01 78 1006.4
20260507021959 56 274 0.0 0.0 0.01 0.06 0.01 78 1006.4
20260507021459 56 274 0.0 0.0 0.01 0.06 0.01 78 1006.4
20260507020958 56 274 0.0 0.0 0.01 0.06 0.01 78 1006.3
20260507020458 56 274 0.0 0.0 0.01 0.06 0.01 78 1006.2
20260507015958 56 274 0.0 0.0 0.01 0.06 0.01 78 1006.2
20260507015458 56 274 0.0 0.0 0.01 0.06 0.01 78 1006.2
20260507014957 56 274 0.0 0.9 0.01 0.06 0.01 78 1006.1
20260507014457 56 236 0.0 0.0 0.01 0.06 0.01 78 1006.1
20260507013957 56 236 0.0 0.0 0.01 0.06 0.01 78 1006.0
20260507013456 56 236 0.0 0.0 0.01 0.06 0.01 78 1006.0
20260507012956 56 236 0.0 0.0 0.01 0.06 0.01 78 1006.0
20260507012456 56 236 0.0 0.0 0.00 0.05 0.00 78 1005.9
20260507011956 56 236 0.0 0.0 0.00 0.05 0.00 78 1005.9
20260507011455 56 236 0.0 0.0 0.00 0.05 0.00 77 1005.8
20260507010955 56 236 0.0 0.0 0.00 0.05 0.00 77 1005.8
20260507010455 56 236 0.0 0.0 0.00 0.05 0.00 77 1005.7
20260507005954 56 236 0.0 0.0 0.00 0.05 0.00 77 1005.7
20260507005454 57 236 0.0 0.0 0.00 0.05 0.00 77 1005.8
20260507004954 57 236 0.0 2.6 0.00 0.05 0.00 76 1005.7
20260507004454 57 216 0.0 1.7 0.00 0.05 0.00 76 1005.8
20260507003953 57 219 0.0 0.9 0.00 0.05 0.00 75 1005.7
20260507003453 57 278 0.0 1.7 0.00 0.05 0.00 75 1005.7
20260507002953 57 230 0.0 0.0 0.00 0.05 0.00 75 1005.7
20260507002452 57 230 0.0 0.0 0.00 0.05 0.00 75 1005.6
20260507001952 57 99 0.0 0.0 0.00 0.05 0.00 75 1005.5
20260507001452 57 99 0.0 0.0 0.00 0.05 0.00 75 1005.5
20260507000952 57 99 0.0 0.0 0.00 0.05 0.00 76 1005.6
20260507000451 57 99 0.0 0.0 0.00 0.05 0.00 76 1005.5
20260506235951 57 99 0.0 0.0 0.00 0.05 0.00 76 1005.6
20260506235451 56 99 0.0 0.0 0.00 0.05 0.00 76 1005.5
20260506234950 56 99 0.0 0.0 0.00 0.05 0.00 76 1005.5
20260506234450 56 99 0.0 3.5 0.00 0.05 0.00 76 1005.5
20260506233950 56 153 2.6 2.6 0.00 0.07 0.00 76 1005.5
20260506233450 56 113 0.0 1.7 0.00 0.07 0.00 77 1005.6
20260506232949 56 21 0.0 2.6 0.00 0.07 0.00 77 1005.5
20260506232449 57 9 1.7 1.7 0.00 0.07 0.00 77 1005.5
20260506231949 56 345 0.0 0.0 0.00 0.07 0.00 77 1005.4
20260506231449 56 345 0.0 0.0 0.00 0.07 0.00 77 1005.3
20260506230948 57 345 0.0 0.0 0.00 0.07 0.00 77 1005.3
20260506230448 57 345 0.0 0.0 0.00 0.07 0.00 77 1005.3
20260506225948 57 345 0.0 0.0 0.00 0.07 0.00 77 1005.2
20260506225447 56 345 0.0 0.0 0.00 0.07 0.00 77 1005.2
20260506224947 56 345 0.0 0.0 0.00 0.07 0.00 77 1005.2
20260506224447 56 345 0.0 2.6 0.00 0.07 0.00 77 1005.2
20260506223947 57 40 0.0 0.0 0.00 0.11 0.00 77 1005.2
20260506223446 57 40 0.0 1.7 0.00 0.11 0.00 77 1005.1
20260506222946 57 61 0.0 0.0 0.00 0.11 0.00 77 1005.1
20260506222446 57 40 0.0 0.0 0.00 0.11 0.00 77 1005.1
20260506221945 57 40 0.0 0.9 0.00 0.11 0.00 77 1005.1
20260506221445 57 87 0.0 1.7 0.00 0.11 0.00 77 1005.1
20260506220945 57 125 0.0 0.0 0.00 0.11 0.00 76 1005.1
20260506220445 57 125 0.0 0.0 0.00 0.11 0.00 77 1005.0
20260506215944 57 125 0.0 0.0 0.00 0.11 0.00 77 1004.9
20260506215444 57 125 0.0 0.0 0.00 0.11 0.00 77 1004.9
20260506214944 57 125 0.0 1.7 0.00 0.11 0.00 77 1005.0
20260506214443 57 87 0.0 0.0 0.00 0.11 0.00 77 1005.0
20260506213943 57 87 0.0 1.7 0.00 0.11 0.00 77 1004.9
20260506213443 57 126 0.0 0.9 0.00 0.11 0.00 77 1004.9
20260506212943 57 99 0.0 0.9 0.00 0.11 0.11 77 1004.8
20260506212442 57 15 0.9 5.2 0.00 0.11 0.11 76 1004.7
20260506211942 57 73 0.9 0.9 0.00 0.11 0.11 77 1004.7
20260506211442 57 78 0.0 0.0 0.00 0.11 0.11 77 1004.8
20260506210941 57 75 0.0 0.9 0.00 0.11 0.11 76 1004.7
20260506210441 57 98 0.0 1.7 0.00 0.11 0.11 76 1004.7
20260506205941 57 28 0.0 0.0 0.00 0.11 0.11 76 1004.7
20260506205441 57 28 0.0 0.0 0.00 0.11 0.11 76 1004.7
20260506204940 58 28 0.0 0.0 0.00 0.11 0.11 77 1004.7
20260506204440 57 28 0.0 0.0 0.00 0.11 0.11 77 1004.6
20260506203940 58 28 0.0 0.0 0.00 0.11 0.11 77 1004.6
20260506203439 57 28 0.0 0.0 0.00 0.11 0.11 77 1004.5
20260506202939 57 28 0.0 2.6 0.00 0.11 0.11 77 1004.5
20260506202439 57 73 0.0 1.7 0.00 0.11 0.11 77 1004.4
20260506201939 58 108 0.0 3.5 0.00 0.11 0.11 77 1004.3
20260506201438 58 120 0.0 1.7 0.00 0.11 0.11 77 1004.3
20260506200938 58 7 0.0 0.0 0.00 0.11 0.11 76 1004.2
20260506200438 58 7 0.0 2.6 0.00 0.11 0.11 76 1004.2
20260506195937 58 149 0.0 0.0 0.00 0.11 0.11 76 1004.1
20260506195437 58 149 0.0 0.0 0.00 0.11 0.11 76 1004.0
20260506194937 58 149 0.0 2.6 0.00 0.11 0.11 76 1004.0
20260506194437 58 147 1.7 2.6 0.00 0.11 0.11 76 1003.9
20260506193936 58 94 0.0 0.0 0.00 0.11 0.11 75 1003.9
20260506193436 58 94 0.0 1.7 0.00 0.11 0.11 75 1003.9
20260506192936 59 350 0.0 1.7 0.00 0.11 0.11 75 1003.9
20260506192435 59 18 0.9 1.7 0.00 0.11 0.11 75 1003.8
20260506191935 59 7 0.0 1.7 0.00 0.11 0.11 75 1003.7
20260506191435 59 133 0.0 0.0 0.00 0.11 0.11 75 1003.6
20260506190935 59 133 0.0 0.0 0.00 0.11 0.11 75 1003.5
20260506190434 59 133 0.0 0.9 0.00 0.11 0.11 75 1003.4
20260506185934 59 104 0.0 0.0 0.00 0.11 0.11 76 1003.3
20260506185434 59 104 0.0 0.0 0.00 0.11 0.11 76 1003.2
20260506184933 60 104 0.0 0.0 0.00 0.11 0.11 76 1003.1
20260506184433 60 104 0.0 0.9 0.00 0.11 0.11 77 1003.0
20260506183933 60 123 0.0 1.7 0.00 0.11 0.11 77 1002.9
20260506183433 60 106 0.0 0.0 0.00 0.11 0.11 77 1002.8
20260506182932 60 106 0.0 3.5 0.00 0.11 0.11 76 1002.8
20260506182432 59 132 0.0 4.3 0.00 0.11 0.11 76 1002.7
20260506181932 59 90 1.7 4.3 0.00 0.11 0.11 76 1002.8
20260506181431 59 101 0.0 5.2 0.00 0.11 0.11 77 1002.7
20260506180931 59 229 0.0 2.6 0.00 0.11 0.11 77 1002.7
20260506180431 59 161 0.0 5.2 0.00 0.11 0.11 77 1002.7
20260506175931 60 161 1.7 7.0 0.00 0.11 0.11 77 1002.6
20260506175430 60 170 4.3 7.0 0.00 0.11 0.11 76 1002.6
20260506174930 60 201 0.9 6.1 0.00 0.11 0.11 76 1002.5
20260506174430 60 168 2.6 7.0 0.00 0.11 0.11 76 1002.5
20260506173929 60 149 2.6 4.3 0.00 0.11 0.11 76 1002.5
20260506173429 60 135 0.9 4.3 0.00 0.11 0.11 76 1002.4
20260506172929 61 68 3.5 6.1 0.00 0.11 0.11 76 1002.4
20260506172429 61 95 4.3 5.2 0.01 0.11 0.11 76 1002.4
20260506171928 61 102 3.5 6.1 0.01 0.11 0.11 76 1002.3
20260506171428 61 153 1.7 6.1 0.01 0.11 0.11 76 1002.2
20260506170928 61 120 0.0 2.6 0.01 0.11 0.11 76 1002.1
20260506170428 61 120 0.0 7.0 0.02 0.11 0.11 76 1002.1
20260506165927 61 142 0.9 4.3 0.03 0.11 0.11 77 1002.1
20260506165427 61 163 1.7 4.3 0.03 0.11 0.11 77 1002.0
20260506164927 61 126 3.5 5.2 0.03 0.11 0.11 76 1002.0
20260506164426 61 164 3.5 6.1 0.04 0.11 0.11 76 1002.0
20260506163926 62 146 0.9 5.2 0.05 0.13 0.11 76 1002.0
20260506163426 62 97 0.9 3.5 0.05 0.13 0.11 76 1002.0
20260506162926 62 182 0.9 6.1 0.05 0.13 0.11 76 1002.1
20260506162425 62 149 0.9 7.8 0.04 0.12 0.10 76 1002.1
20260506161925 62 112 5.2 5.2 0.04 0.12 0.10 76 1002.0
20260506161425 62 143 2.6 7.0 0.04 0.12 0.10 76 1002.0
20260506160924 63 133 1.7 6.1 0.04 0.12 0.10 76 1002.0
20260506160424 63 14 0.0 4.3 0.03 0.11 0.09 76 1002.0
20260506155924 63 29 0.0 2.6 0.02 0.10 0.08 75 1002.0
20260506155424 63 2 0.0 1.7 0.02 0.10 0.08 75 1002.0
20260506154923 63 75 0.0 6.1 0.02 0.10 0.08 75 1002.0
20260506154423 63 61 0.9 2.6 0.01 0.09 0.07 75 1002.0
20260506153923 63 172 0.9 4.3 0.00 0.12 0.06 74 1002.1
20260506153422 64 165 4.3 6.1 0.00 0.12 0.06 73 1002.0
20260506152922 64 171 5.2 6.1 0.00 0.12 0.06 72 1002.0
20260506152422 65 175 3.5 5.2 0.00 0.12 0.06 71 1002.0
20260506151922 64 129 0.9 2.6 0.00 0.12 0.06 70 1001.9
20260506151422 64 125 1.7 4.3 0.00 0.12 0.06 70 1001.8
20260506150921 64 8 0.0 4.3 0.00 0.12 0.06 69 1001.8
20260506150421 65 127 0.0 5.2 0.00 0.12 0.06 68 1001.8
20260506145920 64 156 1.7 5.2 0.00 0.12 0.06 68 1001.7
20260506145420 65 118 1.7 3.5 0.00 0.12 0.06 67 1001.7
20260506144920 65 99 0.0 1.7 0.00 0.12 0.06 67 1001.7
20260506144420 65 54 0.0 7.0 0.00 0.12 0.06 66 1001.7
20260506143919 65 108 0.9 5.2 0.00 0.13 0.06 65 1001.7
20260506143419 66 97 2.6 7.8 0.00 0.13 0.06 64 1001.6
20260506142919 66 0 2.6 5.2 0.00 0.13 0.06 63 1001.5
20260506142418 66 109 0.9 5.2 0.00 0.13 0.06 61 1001.5
20260506141918 66 25 0.0 7.0 0.00 0.13 0.06 61 1001.5
20260506141418 67 119 0.0 2.6 0.00 0.13 0.06 60 1001.5
20260506140918 67 97 0.0 3.5 0.00 0.13 0.06 60 1001.4
20260506140417 67 151 1.7 3.5 0.00 0.13 0.06 59 1001.4
20260506135917 67 63 1.7 6.1 0.00 0.13 0.06 58 1001.3
20260506135417 68 23 0.9 6.1 0.00 0.13 0.06 57 1001.2
20260506134916 68 150 5.2 5.2 0.00 0.13 0.06 56 1001.3
20260506134416 68 289 0.0 5.2 0.00 0.13 0.06 55 1001.3
20260506133917 70 81 0.9 5.2 0.00 0.13 0.06 54 1001.3
20260506133416 69 171 1.7 7.8 0.00 0.13 0.06 52 1001.3
20260506132915 70 28 0.9 5.2 0.00 0.13 0.06 53 1001.3
20260506132415 70 104 2.6 5.2 0.00 0.13 0.06 52 1001.3
20260506131915 70 300 0.9 5.2 0.00 0.13 0.06 53 1001.4
20260506131414 70 350 3.5 6.1 0.00 0.13 0.06 52 1001.3
20260506130914 69 192 3.5 7.0 0.00 0.13 0.06 53 1001.3
20260506130414 68 12 2.6 8.7 0.00 0.13 0.06 56 1001.3
20260506125914 68 36 2.6 6.1 0.00 0.13 0.06 56 1001.3
20260506125413 68 8 1.7 7.8 0.00 0.13 0.06 56 1001.4
20260506124913 68 1 1.7 7.8 0.00 0.13 0.06 56 1001.3
20260506124413 68 147 1.7 6.1 0.00 0.13 0.06 56 1001.4
20260506123912 68 313 0.0 7.0 0.00 0.13 0.06 57 1001.4
20260506123412 68 5 3.5 6.1 0.00 0.13 0.06 57 1001.4
20260506122912 67 272 0.9 7.0 0.00 0.13 0.06 58 1001.4
20260506122412 67 2 2.6 6.1 0.00 0.13 0.06 58 1001.4
20260506121911 67 123 1.7 6.1 0.00 0.13 0.06 57 1001.3
20260506121411 68 135 3.5 7.8 0.00 0.13 0.06 56 1001.4
20260506120911 68 331 0.0 7.0 0.00 0.13 0.06 55 1001.4
20260506120411 69 337 1.7 6.1 0.00 0.13 0.06 54 1001.3
20260506115910 69 85 2.6 7.0 0.00 0.13 0.06 53 1001.4
20260506115410 69 8 4.3 6.1 0.00 0.13 0.06 52 1001.4
20260506114910 69 358 4.3 6.1 0.00 0.13 0.06 54 1001.4
20260506114409 68 336 0.9 5.2 0.00 0.13 0.06 58 1001.3
20260506113909 66 74 0.0 3.5 0.00 0.13 0.06 62 1001.3
20260506113409 65 347 0.9 5.2 0.00 0.13 0.06 62 1001.4
20260506112909 65 32 0.0 4.3 0.00 0.13 0.06 62 1001.4
20260506112408 66 45 1.7 4.3 0.00 0.13 0.06 62 1001.5
20260506111908 65 149 0.9 3.5 0.00 0.13 0.06 62 1001.5
20260506111408 65 111 0.9 6.1 0.00 0.13 0.06 62 1001.6
20260506110907 65 95 0.0 4.3 0.00 0.13 0.06 62 1001.6
20260506110407 65 28 0.0 5.2 0.00 0.13 0.06 62 1001.6
20260506105907 65 104 0.9 6.1 0.00 0.13 0.06 63 1001.6
20260506105407 65 14 3.5 8.7 0.00 0.13 0.06 63 1001.6
20260506104906 65 127 7.8 7.8 0.00 0.13 0.06 63 1001.6
20260506104406 65 30 0.0 3.5 0.00 0.13 0.06 63 1001.6
20260506103906 65 150 1.7 5.2 0.00 0.13 0.06 63 1001.7
20260506103405 65 4 2.6 5.2 0.00 0.13 0.06 63 1001.7
20260506102905 65 95 1.7 7.0 0.00 0.13 0.06 62 1001.7
20260506102405 64 19 0.0 5.2 0.00 0.13 0.06 63 1001.6
20260506101905 64 42 1.7 6.1 0.00 0.13 0.06 62 1001.7
20260506101404 64 29 1.7 7.0 0.00 0.13 0.06 61 1001.6
20260506100904 65 336 4.3 5.2 0.00 0.13 0.06 62 1001.6
20260506100404 65 8 1.7 6.1 0.00 0.13 0.06 61 1001.6
20260506095904 65 4 3.5 7.0 0.00 0.13 0.06 61 1001.7
20260506095403 66 289 0.9 4.3 0.00 0.13 0.06 61 1001.6
20260506094903 65 50 0.0 7.0 0.00 0.13 0.06 61 1001.5
20260506094403 65 91 0.9 6.1 0.00 0.13 0.06 62 1001.5
20260506093902 65 108 1.7 4.3 0.00 0.13 0.06 63 1001.6